Time,TemperatureF,DewpointF,PressureIn,WindDirection,WindDirectionDegrees,WindSpeedMPH,WindSpeedGustMPH,Humidity,HourlyPrecipIn,Conditions,Clouds,dailyrainin,SoftwareType,DateUTC
2013-03-25 00:00:00,40.5,15.6,30.10,NE,37,5.4,7.2,36,0.00,,---,0.00,VWS V14.01,2013-03-25 05:00:00,
2013-03-25 00:05:00,40.3,15.5,30.10,NE,39,7.6,8.3,36,0.00,,---,0.00,VWS V14.01,2013-03-25 05:05:00,
2013-03-25 00:10:00,40.3,15.5,30.10,ENE,57,5.8,5.8,36,0.00,,---,0.00,VWS V14.01,2013-03-25 05:10:00,
2013-03-25 00:15:00,40.3,16.1,30.10,NNE,27,6.3,6.3,37,0.00,,---,0.00,VWS V14.01,2013-03-25 05:15:00,
2013-03-25 00:20:00,40.1,15.9,30.10,NE,39,6.3,6.3,37,0.00,,---,0.00,VWS V14.01,2013-03-25 05:20:00,
2013-03-25 00:25:00,39.9,15.8,30.10,NNE,32,5.4,5.8,37,0.00,,---,0.00,VWS V14.01,2013-03-25 05:25:00,
2013-03-25 00:30:00,39.7,15.6,30.10,NE,36,5.4,5.4,37,0.00,,---,0.00,VWS V14.01,2013-03-25 05:30:00,
2013-03-25 00:35:00,39.6,15.4,30.10,NE,45,4.0,5.8,37,0.00,,---,0.00,VWS V14.01,2013-03-25 05:35:00,
2013-03-25 00:40:00,39.4,15.9,30.10,NE,45,5.8,5.8,38,0.00,,---,0.00,VWS V14.01,2013-03-25 05:40:00,
2013-03-25 00:45:00,39.2,15.7,30.10,NE,44,3.1,4.0,38,0.00,,---,0.00,VWS V14.01,2013-03-25 05:45:00,
2013-03-25 00:50:00,39.0,16.2,30.10,NE,44,3.1,3.6,39,0.00,,---,0.00,VWS V14.01,2013-03-25 05:50:00,
2013-03-25 00:55:00,38.8,16.0,30.10,NE,36,3.1,4.0,39,0.00,,---,0.00,VWS V14.01,2013-03-25 05:55:00,
2013-03-25 01:00:00,38.7,15.9,30.10,NE,38,6.3,6.3,39,0.00,,---,0.00,VWS V14.01,2013-03-25 06:00:00,
2013-03-25 01:05:00,38.5,15.7,30.10,NE,43,4.9,5.4,39,0.00,,---,0.00,VWS V14.01,2013-03-25 06:05:00,
2013-03-25 01:10:00,38.3,15.5,30.10,NE,38,4.0,4.9,39,0.00,,---,0.00,VWS V14.01,2013-03-25 06:10:00,
2013-03-25 01:15:00,38.1,15.4,30.10,NE,41,4.0,4.0,39,0.00,,---,0.00,VWS V14.01,2013-03-25 06:15:00,
2013-03-25 01:20:00,37.9,15.2,30.10,NE,54,3.1,5.8,39,0.00,,---,0.00,VWS V14.01,2013-03-25 06:20:00,
2013-03-25 01:25:00,37.9,15.2,30.10,NE,38,4.9,4.9,39,0.00,,---,0.00,VWS V14.01,2013-03-25 06:25:00,
2013-03-25 01:30:00,37.9,15.2,30.10,NE,52,4.0,4.0,39,0.00,,---,0.00,VWS V14.01,2013-03-25 06:30:00,
2013-03-25 01:35:00,37.9,15.2,30.10,NE,44,6.3,6.3,39,0.00,,---,0.00,VWS V14.01,2013-03-25 06:35:00,
2013-03-25 01:40:00,37.8,15.0,30.10,NE,43,6.3,6.3,39,0.00,,---,0.00,VWS V14.01,2013-03-25 06:40:00,
2013-03-25 01:45:00,37.8,15.6,30.10,NE,42,4.9,5.4,40,0.00,,---,0.00,VWS V14.01,2013-03-25 06:45:00,
2013-03-25 01:50:00,37.9,15.8,30.10,NE,46,3.6,5.4,40,0.00,,---,0.00,VWS V14.01,2013-03-25 06:50:00,
2013-03-25 01:55:00,37.8,15.6,30.10,NNE,33,2.7,3.1,40,0.00,,---,0.00,VWS V14.01,2013-03-25 06:55:00,
2013-03-25 02:00:00,37.6,15.5,30.10,NE,40,5.8,5.8,40,0.00,,---,0.00,VWS V14.01,2013-03-25 07:00:00,
2013-03-25 02:05:00,37.4,15.3,30.10,NE,47,3.6,4.0,40,0.00,,---,0.00,VWS V14.01,2013-03-25 07:05:00,
2013-03-25 02:10:00,37.2,15.1,30.10,NNE,33,4.5,5.4,40,0.00,,---,0.00,VWS V14.01,2013-03-25 07:10:00,
2013-03-25 02:15:00,37.0,15.0,30.10,NNE,32,3.6,3.6,40,0.00,,---,0.00,VWS V14.01,2013-03-25 07:15:00,
2013-03-25 02:20:00,37.0,15.0,30.10,NE,37,4.0,4.0,40,0.00,,---,0.00,VWS V14.01,2013-03-25 07:20:00,
2013-03-25 02:25:00,36.9,14.8,30.10,NE,39,3.1,3.1,40,0.00,,---,0.00,VWS V14.01,2013-03-25 07:25:00,
2013-03-25 02:30:00,36.9,15.4,30.10,NNE,31,3.1,4.0,41,0.00,,---,0.00,VWS V14.01,2013-03-25 07:30:00,
2013-03-25 02:35:00,36.7,15.2,30.10,NE,36,3.6,6.3,41,0.00,,---,0.00,VWS V14.01,2013-03-25 07:35:00,
2013-03-25 02:40:00,36.7,15.2,30.10,NNE,30,4.0,4.0,41,0.00,,---,0.00,VWS V14.01,2013-03-25 07:40:00,
2013-03-25 02:45:00,36.7,15.2,30.10,NE,34,4.0,4.9,41,0.00,,---,0.00,VWS V14.01,2013-03-25 07:45:00,
2013-03-25 02:50:00,36.7,15.2,30.10,NE,34,3.6,5.4,41,0.00,,---,0.00,VWS V14.01,2013-03-25 07:50:00,
2013-03-25 02:55:00,36.7,15.2,30.10,NNE,29,5.8,5.8,41,0.00,,---,0.00,VWS V14.01,2013-03-25 07:55:00,
2013-03-25 03:00:00,36.5,15.1,30.10,NE,35,4.0,4.9,41,0.00,,---,0.00,VWS V14.01,2013-03-25 08:00:00,
2013-03-25 03:05:00,36.5,15.1,30.10,NE,38,2.7,3.6,41,0.00,,---,0.00,VWS V14.01,2013-03-25 08:05:00,
2013-03-25 03:10:00,36.3,14.9,30.10,NE,47,3.6,4.0,41,0.00,,---,0.00,VWS V14.01,2013-03-25 08:10:00,
2013-03-25 03:15:00,36.3,14.9,30.13,NE,39,5.8,5.8,41,0.00,,---,0.00,VWS V14.01,2013-03-25 08:15:00,
2013-03-25 03:20:00,36.1,14.7,30.13,NE,39,5.8,5.8,41,0.00,,---,0.00,VWS V14.01,2013-03-25 08:20:00,
2013-03-25 03:25:00,36.0,14.6,30.13,NE,47,4.9,5.4,41,0.00,,---,0.00,VWS V14.01,2013-03-25 08:25:00,
2013-03-25 03:30:00,36.1,14.7,30.13,NE,43,5.4,5.4,41,0.00,,---,0.00,VWS V14.01,2013-03-25 08:30:00,
2013-03-25 03:35:00,36.1,14.7,30.13,NNE,29,6.3,6.3,41,0.00,,---,0.00,VWS V14.01,2013-03-25 08:35:00,
2013-03-25 03:40:00,36.1,14.7,30.13,NE,43,4.0,5.4,41,0.00,,---,0.00,VWS V14.01,2013-03-25 08:40:00,
2013-03-25 03:45:00,36.1,14.7,30.13,NNE,31,5.4,5.4,41,0.00,,---,0.00,VWS V14.01,2013-03-25 08:45:00,
2013-03-25 03:50:00,36.0,14.6,30.13,NNE,20,5.4,5.4,41,0.00,,---,0.00,VWS V14.01,2013-03-25 08:50:00,
2013-03-25 03:55:00,35.8,14.4,30.13,NE,48,3.6,6.3,41,0.00,,---,0.00,VWS V14.01,2013-03-25 08:55:00,
2013-03-25 04:00:00,35.6,14.2,30.10,NE,39,4.0,6.3,41,0.00,,---,0.00,VWS V14.01,2013-03-25 09:00:00,
2013-03-25 04:05:00,35.6,14.2,30.10,NE,44,4.9,4.9,41,0.00,,---,0.00,VWS V14.01,2013-03-25 09:05:00,
2013-03-25 04:10:00,35.4,14.6,30.10,NE,45,4.0,5.8,42,0.00,,---,0.00,VWS V14.01,2013-03-25 09:10:00,
2013-03-25 04:15:00,35.4,14.6,30.13,NE,41,5.4,5.4,42,0.00,,---,0.00,VWS V14.01,2013-03-25 09:15:00,
2013-03-25 04:20:00,35.4,14.6,30.13,NE,49,3.6,4.9,42,0.00,,---,0.00,VWS V14.01,2013-03-25 09:20:00,
2013-03-25 04:25:00,35.1,14.3,30.13,NE,39,5.8,6.3,42,0.00,,---,0.00,VWS V14.01,2013-03-25 09:25:00,
2013-03-25 04:30:00,35.1,14.3,30.13,NNE,23,4.9,4.9,42,0.00,,---,0.00,VWS V14.01,2013-03-25 09:30:00,
2013-03-25 04:35:00,34.7,14.0,30.13,NE,35,6.3,6.3,42,0.00,,---,0.00,VWS V14.01,2013-03-25 09:35:00,
2013-03-25 04:40:00,34.9,14.1,30.13,NE,36,6.3,10.5,42,0.00,,---,0.00,VWS V14.01,2013-03-25 09:40:00,
2013-03-25 04:45:00,34.9,14.1,30.13,NNE,14,7.6,7.6,42,0.00,,---,0.00,VWS V14.01,2013-03-25 09:45:00,
2013-03-25 04:50:00,34.9,14.1,30.13,NNE,30,8.1,9.2,42,0.00,,---,0.00,VWS V14.01,2013-03-25 09:50:00,
2013-03-25 04:55:00,34.9,14.1,30.13,NNE,30,5.8,7.6,42,0.00,,---,0.00,VWS V14.01,2013-03-25 09:55:00,
2013-03-25 05:00:00,34.9,14.1,30.13,NNE,31,8.1,8.7,42,0.00,,---,0.00,VWS V14.01,2013-03-25 10:00:00,
2013-03-25 05:05:00,34.9,14.1,30.13,NNE,30,8.1,8.1,42,0.00,,---,0.00,VWS V14.01,2013-03-25 10:05:00,
2013-03-25 05:10:00,34.9,14.1,30.13,NE,34,8.3,8.7,42,0.00,,---,0.00,VWS V14.01,2013-03-25 10:10:00,
2013-03-25 05:15:00,34.7,14.0,30.13,NNE,20,11.0,11.0,42,0.00,,---,0.00,VWS V14.01,2013-03-25 10:15:00,
2013-03-25 05:20:00,34.5,13.8,30.13,NNE,29,6.3,8.7,42,0.00,,---,0.00,VWS V14.01,2013-03-25 10:20:00,
2013-03-25 05:25:00,34.5,13.8,30.13,NE,49,5.8,10.1,42,0.00,,---,0.00,VWS V14.01,2013-03-25 10:25:00,
2013-03-25 05:30:00,34.5,13.8,30.16,NNE,30,12.8,12.8,42,0.00,,---,0.00,VWS V14.01,2013-03-25 10:30:00,
2013-03-25 05:35:00,34.5,13.8,30.16,NE,45,10.1,10.1,42,0.00,,---,0.00,VWS V14.01,2013-03-25 10:35:00,
2013-03-25 05:40:00,34.5,13.8,30.16,NE,42,6.7,6.7,42,0.00,,---,0.00,VWS V14.01,2013-03-25 10:40:00,
2013-03-25 05:45:00,34.3,13.6,30.16,NNE,27,8.7,8.7,42,0.00,,---,0.00,VWS V14.01,2013-03-25 10:45:00,
2013-03-25 05:50:00,34.3,13.6,30.16,NNE,27,8.3,8.3,42,0.00,,---,0.00,VWS V14.01,2013-03-25 10:50:00,
2013-03-25 05:55:00,34.2,13.5,30.16,NNE,23,7.6,10.5,42,0.00,,---,0.00,VWS V14.01,2013-03-25 10:55:00,
2013-03-25 06:00:00,34.0,13.3,30.16,NE,42,11.0,11.0,42,0.00,,---,0.00,VWS V14.01,2013-03-25 11:00:00,
2013-03-25 06:05:00,33.8,13.1,30.16,NNE,30,8.7,10.5,42,0.00,,---,0.00,VWS V14.01,2013-03-25 11:05:00,
2013-03-25 06:10:00,33.6,13.0,30.16,NNE,27,5.8,6.3,42,0.00,,---,0.00,VWS V14.01,2013-03-25 11:10:00,
2013-03-25 06:15:00,33.4,12.8,30.16,NNE,19,7.6,7.6,42,0.00,,---,0.00,VWS V14.01,2013-03-25 11:15:00,
2013-03-25 06:20:00,33.3,12.7,30.16,NE,45,6.3,9.2,42,0.00,,---,0.00,VWS V14.01,2013-03-25 11:20:00,
2013-03-25 06:25:00,33.1,12.5,30.16,NNE,28,8.3,10.1,42,0.00,,---,0.00,VWS V14.01,2013-03-25 11:25:00,
2013-03-25 06:30:00,33.1,13.0,30.16,North,8,8.7,10.5,43,0.00,,---,0.00,VWS V14.01,2013-03-25 11:30:00,
2013-03-25 06:35:00,32.7,12.7,30.16,NNE,16,10.5,10.5,43,0.00,,---,0.00,VWS V14.01,2013-03-25 11:35:00,
2013-03-25 06:40:00,32.7,12.7,30.16,NNE,30,8.3,8.7,43,0.00,,---,0.00,VWS V14.01,2013-03-25 11:40:00,
2013-03-25 06:45:00,32.7,12.7,30.16,NNE,28,10.5,10.5,43,0.00,,---,0.00,VWS V14.01,2013-03-25 11:45:00,
2013-03-25 06:50:00,32.7,12.7,30.16,NNE,28,10.5,12.3,43,0.00,,---,0.00,VWS V14.01,2013-03-25 11:50:00,
2013-03-25 06:55:00,32.5,12.5,30.16,NNE,29,10.1,15.0,43,0.00,,---,0.00,VWS V14.01,2013-03-25 11:55:00,
2013-03-25 07:00:00,32.5,12.5,30.16,NNE,33,8.7,15.4,43,0.00,,---,0.00,VWS V14.01,2013-03-25 12:00:00,
2013-03-25 07:05:00,32.4,12.4,30.16,NE,41,11.0,11.0,43,0.00,,---,0.00,VWS V14.01,2013-03-25 12:05:00,
2013-03-25 07:10:00,32.2,12.2,30.16,NNE,17,7.6,8.7,43,0.00,,---,0.00,VWS V14.01,2013-03-25 12:10:00,
2013-03-25 07:15:00,32.0,12.1,30.19,NNE,25,8.1,8.1,43,0.00,,---,0.00,VWS V14.01,2013-03-25 12:15:00,
2013-03-25 07:20:00,32.0,12.1,30.19,NE,36,8.1,11.0,43,0.00,,---,0.00,VWS V14.01,2013-03-25 12:20:00,
2013-03-25 07:25:00,31.8,11.9,30.19,NNE,30,8.3,10.5,43,0.00,,---,0.00,VWS V14.01,2013-03-25 12:25:00,
2013-03-25 07:30:00,31.6,11.7,30.19,NNE,31,7.6,8.1,43,0.00,,---,0.00,VWS V14.01,2013-03-25 12:30:00,
2013-03-25 07:35:00,31.5,12.1,30.19,NE,34,5.8,5.8,44,0.00,,---,0.00,VWS V14.01,2013-03-25 12:35:00,
2013-03-25 07:40:00,31.5,12.1,30.19,NNE,30,8.7,8.7,44,0.00,,---,0.00,VWS V14.01,2013-03-25 12:40:00,
2013-03-25 07:46:00,31.5,12.1,30.19,NNE,18,8.3,11.0,44,0.00,,---,0.00,VWS V14.01,2013-03-25 12:46:00,
2013-03-25 07:51:00,31.5,12.1,30.19,NE,43,7.6,7.6,44,0.00,,---,0.00,VWS V14.01,2013-03-25 12:51:00,
2013-03-25 07:56:00,31.5,12.1,30.19,North,4,7.2,7.2,44,0.00,,---,0.00,VWS V14.01,2013-03-25 12:56:00,
2013-03-25 08:01:00,31.5,12.1,30.19,NE,44,8.3,8.3,44,0.00,,---,0.00,VWS V14.01,2013-03-25 13:01:00,
2013-03-25 08:06:00,31.5,12.1,30.19,NE,36,11.0,11.0,44,0.00,,---,0.00,VWS V14.01,2013-03-25 13:06:00,
2013-03-25 08:11:00,31.5,12.1,30.19,NNE,22,10.5,10.5,44,0.00,,---,0.00,VWS V14.01,2013-03-25 13:11:00,
2013-03-25 08:16:00,31.5,12.1,30.19,NNE,21,11.0,11.0,44,0.00,,---,0.00,VWS V14.01,2013-03-25 13:16:00,
2013-03-25 08:21:00,31.5,12.1,30.22,NNE,30,10.1,10.1,44,0.00,,---,0.00,VWS V14.01,2013-03-25 13:21:00,
2013-03-25 08:26:00,31.5,12.1,30.22,NNE,23,7.6,7.6,44,0.00,,---,0.00,VWS V14.01,2013-03-25 13:26:00,
2013-03-25 08:31:00,31.5,12.1,30.22,NNE,23,8.7,10.1,44,0.00,,---,0.00,VWS V14.01,2013-03-25 13:31:00,
2013-03-25 08:36:00,31.5,12.1,30.22,NE,34,7.6,7.6,44,0.00,,---,0.00,VWS V14.01,2013-03-25 13:36:00,
2013-03-25 08:41:00,31.5,12.1,30.22,NNE,12,5.8,5.8,44,0.00,,---,0.00,VWS V14.01,2013-03-25 13:41:00,
2013-03-25 08:46:00,31.5,12.1,30.22,NE,34,10.1,10.5,44,0.00,,---,0.00,VWS V14.01,2013-03-25 13:46:00,
2013-03-25 08:51:00,31.5,12.1,30.22,NE,34,11.4,11.4,44,0.00,,---,0.00,VWS V14.01,2013-03-25 13:51:00,
2013-03-25 08:56:00,31.5,12.1,30.22,NNE,26,5.4,5.4,44,0.00,,---,0.00,VWS V14.01,2013-03-25 13:56:00,
2013-03-25 09:01:00,31.5,12.1,30.25,NE,42,6.3,6.3,44,0.00,,---,0.00,VWS V14.01,2013-03-25 14:01:00,
2013-03-25 09:06:00,31.5,12.1,30.25,NE,49,8.1,8.1,44,0.00,,---,0.00,VWS V14.01,2013-03-25 14:06:00,
2013-03-25 09:11:00,31.5,12.1,30.25,NE,43,8.3,8.3,44,0.00,,---,0.00,VWS V14.01,2013-03-25 14:11:00,
2013-03-25 09:16:00,31.5,12.1,30.25,North,11,8.7,8.7,44,0.00,,---,0.00,VWS V14.01,2013-03-25 14:16:00,
2013-03-25 09:21:00,31.5,12.1,30.25,North,0,9.2,9.2,44,0.00,,---,0.00,VWS V14.01,2013-03-25 14:21:00,
2013-03-25 09:26:00,31.5,12.1,30.25,North,11,8.1,8.1,44,0.00,,---,0.00,VWS V14.01,2013-03-25 14:26:00,
2013-03-25 09:31:00,31.5,12.1,30.25,NE,51,4.0,6.3,44,0.00,,---,0.00,VWS V14.01,2013-03-25 14:31:00,
2013-03-25 09:36:00,31.5,12.1,30.25,NNE,26,8.3,8.3,44,0.00,,---,0.00,VWS V14.01,2013-03-25 14:36:00,
2013-03-25 09:42:00,31.5,12.1,30.25,NNE,20,8.3,8.3,44,0.00,,---,0.00,VWS V14.01,2013-03-25 14:42:00,
2013-03-25 09:47:00,31.5,12.1,30.25,NE,43,8.1,8.1,44,0.00,,---,0.00,VWS V14.01,2013-03-25 14:47:00,
2013-03-25 09:52:00,31.5,12.1,30.28,NNE,29,8.1,8.1,44,0.00,,---,0.00,VWS V14.01,2013-03-25 14:52:00,
2013-03-25 09:57:00,31.5,12.1,30.28,NNE,20,10.5,10.5,44,0.00,,---,0.00,VWS V14.01,2013-03-25 14:57:00,
2013-03-25 10:02:00,31.5,12.1,30.28,NE,38,8.3,8.3,44,0.00,,---,0.00,VWS V14.01,2013-03-25 15:02:00,
2013-03-25 10:07:00,31.5,12.1,30.28,ENE,65,6.3,6.3,44,0.00,,---,0.00,VWS V14.01,2013-03-25 15:07:00,
2013-03-25 10:12:00,31.5,12.1,30.28,NE,36,8.1,8.1,44,0.00,,---,0.00,VWS V14.01,2013-03-25 15:12:00,
2013-03-25 10:17:00,31.5,12.1,30.28,ENE,61,8.3,12.3,44,0.00,,---,0.00,VWS V14.01,2013-03-25 15:17:00,
2013-03-25 10:22:00,31.5,12.1,30.28,NE,37,8.3,8.3,44,0.00,,---,0.00,VWS V14.01,2013-03-25 15:22:00,
2013-03-25 10:27:00,31.5,12.1,30.28,North,10,13.2,13.2,44,0.00,,---,0.00,VWS V14.01,2013-03-25 15:27:00,
2013-03-25 10:32:00,31.5,12.1,30.28,East,83,6.3,8.3,44,0.00,,---,0.00,VWS V14.01,2013-03-25 15:32:00,
2013-03-25 10:37:00,31.5,12.1,30.28,North,2,8.7,8.7,44,0.00,,---,0.00,VWS V14.01,2013-03-25 15:37:00,
2013-03-25 10:42:00,31.5,12.1,30.28,NE,43,11.0,11.0,44,0.00,,---,0.00,VWS V14.01,2013-03-25 15:42:00,
2013-03-25 10:47:00,31.5,12.1,30.28,ESE,104,6.3,6.3,44,0.00,,---,0.00,VWS V14.01,2013-03-25 15:47:00,
2013-03-25 10:52:00,31.5,12.1,30.28,ENE,59,12.8,12.8,44,0.00,,---,0.00,VWS V14.01,2013-03-25 15:52:00,
2013-03-25 10:57:00,31.5,12.1,30.28,ENE,76,11.4,11.4,44,0.00,,---,0.00,VWS V14.01,2013-03-25 15:57:00,
2013-03-25 11:02:00,42.4,16.7,30.28,NE,40,8.1,8.1,35,0.00,,---,0.00,VWS V14.01,2013-03-25 16:02:00,
2013-03-25 11:07:00,42.4,16.7,30.28,NE,55,13.2,13.2,35,0.00,,---,0.00,VWS V14.01,2013-03-25 16:07:00,
2013-03-25 11:12:00,42.4,16.7,30.28,NNE,15,7.2,7.2,35,0.00,,---,0.00,VWS V14.01,2013-03-25 16:12:00,
2013-03-25 11:17:00,42.4,16.7,30.28,NE,46,3.6,4.9,35,0.00,,---,0.00,VWS V14.01,2013-03-25 16:17:00,
2013-03-25 11:23:00,43.5,16.3,30.28,NNE,15,7.2,7.2,33,0.00,,---,0.00,VWS V14.01,2013-03-25 16:23:00,
2013-03-25 11:28:00,43.5,16.3,30.28,SE,133,4.9,4.9,33,0.00,,---,0.00,VWS V14.01,2013-03-25 16:28:00,
2013-03-25 11:33:00,43.5,16.3,30.28,ESE,105,8.1,8.1,33,0.00,,---,0.00,VWS V14.01,2013-03-25 16:33:00,
2013-03-25 11:38:00,43.5,16.3,30.28,NNE,12,8.7,8.7,33,0.00,,---,0.00,VWS V14.01,2013-03-25 16:38:00,
2013-03-25 11:43:00,43.5,16.3,30.28,ENE,68,3.6,5.4,33,0.00,,---,0.00,VWS V14.01,2013-03-25 16:43:00,
2013-03-25 11:48:00,43.5,16.3,30.28,East,96,4.9,4.9,33,0.00,,---,0.00,VWS V14.01,2013-03-25 16:48:00,
2013-03-25 11:53:00,43.5,16.3,30.28,SE,133,5.4,5.4,33,0.00,,---,0.00,VWS V14.01,2013-03-25 16:53:00,
2013-03-25 11:58:00,43.5,16.3,30.28,East,89,5.4,5.4,33,0.00,,---,0.00,VWS V14.01,2013-03-25 16:58:00,
2013-03-25 12:03:00,43.5,16.3,30.28,ENE,59,5.4,6.3,33,0.00,,---,0.00,VWS V14.01,2013-03-25 17:03:00,
2013-03-25 12:08:00,43.5,16.3,30.28,ESE,112,3.6,3.6,33,0.00,,---,0.00,VWS V14.01,2013-03-25 17:08:00,
2013-03-25 12:13:00,43.5,16.3,30.28,NE,41,5.4,5.4,33,0.00,,---,0.00,VWS V14.01,2013-03-25 17:13:00,
2013-03-25 12:18:00,43.5,16.3,30.28,East,85,3.1,3.1,33,0.00,,---,0.00,VWS V14.01,2013-03-25 17:18:00,
2013-03-25 12:23:00,43.5,16.3,30.28,ESE,116,3.1,3.1,33,0.00,,---,0.00,VWS V14.01,2013-03-25 17:23:00,
2013-03-25 12:28:00,43.5,16.3,30.28,NNE,33,7.6,7.6,33,0.00,,---,0.00,VWS V14.01,2013-03-25 17:28:00,
2013-03-25 12:33:00,43.5,16.3,30.28,North,6,4.9,4.9,33,0.00,,---,0.00,VWS V14.01,2013-03-25 17:33:00,
2013-03-25 12:38:00,43.5,16.3,30.28,NE,35,5.4,5.4,33,0.00,,---,0.00,VWS V14.01,2013-03-25 17:38:00,
2013-03-25 12:43:00,47.3,16.7,30.28,NE,46,11.0,11.0,29,0.00,,---,0.00,VWS V14.01,2013-03-25 17:43:00,
2013-03-25 12:48:00,47.3,16.7,30.25,NNE,19,8.1,8.1,29,0.00,,---,0.00,VWS V14.01,2013-03-25 17:48:00,
2013-03-25 12:53:00,47.3,16.7,30.25,East,90,3.1,5.8,29,0.00,,---,0.00,VWS V14.01,2013-03-25 17:53:00,
2013-03-25 12:58:00,47.3,16.7,30.25,SE,129,5.4,5.4,29,0.00,,---,0.00,VWS V14.01,2013-03-25 17:58:00,
2013-03-25 13:03:00,47.3,16.7,30.25,NE,43,3.6,3.6,29,0.00,,---,0.00,VWS V14.01,2013-03-25 18:03:00,
2013-03-25 13:08:00,47.3,16.7,30.25,East,81,4.0,4.0,29,0.00,,---,0.00,VWS V14.01,2013-03-25 18:08:00,
2013-03-25 13:13:00,47.3,16.7,30.25,ESE,123,5.4,5.4,29,0.00,,---,0.00,VWS V14.01,2013-03-25 18:13:00,
2013-03-25 13:18:00,47.3,16.7,30.25,NNE,25,5.8,5.8,29,0.00,,---,0.00,VWS V14.01,2013-03-25 18:18:00,
2013-03-25 13:23:00,47.3,16.7,30.25,East,89,4.0,4.0,29,0.00,,---,0.00,VWS V14.01,2013-03-25 18:23:00,
2013-03-25 13:28:00,47.3,16.7,30.25,SE,128,3.6,5.8,29,0.00,,---,0.00,VWS V14.01,2013-03-25 18:28:00,
2013-03-25 13:33:00,47.3,16.7,30.25,NE,44,3.6,3.6,29,0.00,,---,0.00,VWS V14.01,2013-03-25 18:33:00,
2013-03-25 13:38:00,47.3,16.7,30.25,NNE,25,4.0,4.0,29,0.00,,---,0.00,VWS V14.01,2013-03-25 18:38:00,
2013-03-25 13:43:00,47.3,16.7,30.25,NE,53,4.0,4.0,29,0.00,,---,0.00,VWS V14.01,2013-03-25 18:43:00,
2013-03-25 13:48:00,47.3,16.7,30.25,ESE,122,5.8,5.8,29,0.00,,---,0.00,VWS V14.01,2013-03-25 18:48:00,
2013-03-25 13:53:00,47.3,16.7,30.25,East,100,2.7,2.7,29,0.00,,---,0.00,VWS V14.01,2013-03-25 18:53:00,
2013-03-25 13:58:00,47.3,16.7,30.25,NE,49,5.4,5.4,29,0.00,,---,0.00,VWS V14.01,2013-03-25 18:58:00,
2013-03-25 14:03:00,47.3,16.7,30.22,NNE,28,8.7,8.7,29,0.00,,---,0.00,VWS V14.01,2013-03-25 19:03:00,
2013-03-25 14:08:00,47.3,16.7,30.22,NNE,24,8.7,8.7,29,0.00,,---,0.00,VWS V14.01,2013-03-25 19:08:00,
2013-03-25 14:13:00,47.3,16.7,30.22,NE,37,8.7,8.7,29,0.00,,---,0.00,VWS V14.01,2013-03-25 19:13:00,
2013-03-25 14:18:00,47.3,16.7,30.22,NNE,29,4.0,4.0,29,0.00,,---,0.00,VWS V14.01,2013-03-25 19:18:00,
2013-03-25 14:23:00,47.3,16.7,30.22,NW,318,5.8,5.8,29,0.00,,---,0.00,VWS V14.01,2013-03-25 19:23:00,
2013-03-25 14:28:00,47.3,16.7,30.22,NNE,25,3.6,3.6,29,0.00,,---,0.00,VWS V14.01,2013-03-25 19:28:00,
2013-03-25 14:33:00,47.3,16.7,30.22,East,90,3.1,3.1,29,0.00,,---,0.00,VWS V14.01,2013-03-25 19:33:00,
2013-03-25 14:38:00,47.3,16.7,30.22,NNE,28,6.3,6.3,29,0.00,,---,0.00,VWS V14.01,2013-03-25 19:38:00,
2013-03-25 14:43:00,47.3,16.7,30.22,North,357,5.4,5.4,29,0.00,,---,0.00,VWS V14.01,2013-03-25 19:43:00,
2013-03-25 14:48:00,47.3,16.7,30.22,NNE,25,8.1,8.1,29,0.00,,---,0.00,VWS V14.01,2013-03-25 19:48:00,
2013-03-25 14:53:00,47.3,16.7,30.22,NNE,20,6.3,6.3,29,0.00,,---,0.00,VWS V14.01,2013-03-25 19:53:00,
2013-03-25 14:58:00,51.4,18.6,30.22,NNE,24,4.9,4.9,27,0.00,,---,0.00,VWS V14.01,2013-03-25 19:58:00,
2013-03-25 15:03:00,51.4,18.6,30.22,NW,318,5.8,5.8,27,0.00,,---,0.00,VWS V14.01,2013-03-25 20:03:00,
2013-03-25 15:08:00,51.4,18.6,30.22,WSW,256,0.0,0.0,27,0.00,,---,0.00,VWS V14.01,2013-03-25 20:08:00,
2013-03-25 15:13:00,51.4,18.6,30.22,NE,52,6.3,6.3,27,0.00,,---,0.00,VWS V14.01,2013-03-25 20:13:00,
2013-03-25 15:18:00,51.4,18.6,30.19,ESE,111,2.7,2.7,27,0.00,,---,0.00,VWS V14.01,2013-03-25 20:18:00,
2013-03-25 15:23:00,51.4,18.6,30.19,ENE,78,2.2,2.2,27,0.00,,---,0.00,VWS V14.01,2013-03-25 20:23:00,
2013-03-25 15:28:00,51.4,18.6,30.19,SE,127,4.0,4.0,27,0.00,,---,0.00,VWS V14.01,2013-03-25 20:28:00,
2013-03-25 15:33:00,53.1,20.0,30.19,NNE,28,3.6,3.6,27,0.00,,---,0.00,VWS V14.01,2013-03-25 20:33:00,
2013-03-25 15:38:00,53.1,20.0,30.19,North,4,5.4,5.4,27,0.00,,---,0.00,VWS V14.01,2013-03-25 20:38:00,
2013-03-25 15:43:00,52.9,19.8,30.19,North,10,10.1,10.1,27,0.00,,---,0.00,VWS V14.01,2013-03-25 20:43:00,
2013-03-25 15:49:00,52.9,19.8,30.19,North,357,7.6,7.6,27,0.00,,---,0.00,VWS V14.01,2013-03-25 20:49:00,
2013-03-25 15:54:00,53.2,20.1,30.19,NNW,346,5.8,8.7,27,0.00,,---,0.00,VWS V14.01,2013-03-25 20:54:00,
2013-03-25 15:59:00,53.2,20.1,30.19,NNW,327,8.1,8.1,27,0.00,,---,0.00,VWS V14.01,2013-03-25 20:59:00,
2013-03-25 16:04:00,53.2,20.1,30.19,NW,309,5.8,7.6,27,0.00,,---,0.00,VWS V14.01,2013-03-25 21:04:00,
2013-03-25 16:09:00,53.2,20.1,30.19,NE,34,8.7,8.7,27,0.00,,---,0.00,VWS V14.01,2013-03-25 21:09:00,
2013-03-25 16:14:00,53.8,19.7,30.19,NE,51,2.7,2.7,26,0.00,,---,0.00,VWS V14.01,2013-03-25 21:14:00,
2013-03-25 16:19:00,55.0,20.8,30.19,NNE,30,3.1,3.1,26,0.00,,---,0.00,VWS V14.01,2013-03-25 21:19:00,
2013-03-25 16:24:00,55.0,20.8,30.19,NNE,30,8.3,8.3,26,0.00,,---,0.00,VWS V14.01,2013-03-25 21:24:00,
2013-03-25 16:29:00,54.9,20.6,30.19,WNW,293,0.0,3.1,26,0.00,,---,0.00,VWS V14.01,2013-03-25 21:29:00,
2013-03-25 16:34:00,54.9,20.6,30.19,NNE,33,3.6,3.6,26,0.00,,---,0.00,VWS V14.01,2013-03-25 21:34:00,
2013-03-25 16:39:00,55.6,20.3,30.19,NNE,17,8.7,8.7,25,0.00,,---,0.00,VWS V14.01,2013-03-25 21:39:00,
2013-03-25 16:44:00,55.6,20.3,30.19,NNE,28,4.9,4.9,25,0.00,,---,0.00,VWS V14.01,2013-03-25 21:44:00,
2013-03-25 16:49:00,54.9,20.6,30.19,NNE,32,0.0,7.6,26,0.00,,---,0.00,VWS V14.01,2013-03-25 21:49:00,
2013-03-25 16:54:00,55.0,20.8,30.19,North,10,3.6,3.6,26,0.00,,---,0.00,VWS V14.01,2013-03-25 21:54:00,
2013-03-25 16:59:00,55.4,20.2,30.19,North,357,5.8,5.8,25,0.00,,---,0.00,VWS V14.01,2013-03-25 21:59:00,
2013-03-25 17:04:00,55.4,20.2,30.19,ESE,102,6.3,6.3,25,0.00,,---,0.00,VWS V14.01,2013-03-25 22:04:00,
2013-03-25 17:09:00,55.6,20.3,30.19,WNW,297,3.6,3.6,25,0.00,,---,0.00,VWS V14.01,2013-03-25 22:09:00,
2013-03-25 17:14:00,56.1,20.8,30.19,North,7,7.6,7.6,25,0.00,,---,0.00,VWS V14.01,2013-03-25 22:14:00,
2013-03-25 17:19:00,55.9,20.6,30.19,NNW,332,3.6,8.1,25,0.00,,---,0.00,VWS V14.01,2013-03-25 22:19:00,
2013-03-25 17:24:00,56.1,20.8,30.19,West,264,3.1,3.1,25,0.00,,---,0.00,VWS V14.01,2013-03-25 22:24:00,
2013-03-25 17:29:00,56.1,20.8,30.19,North,353,8.1,8.7,25,0.00,,---,0.00,VWS V14.01,2013-03-25 22:29:00,
2013-03-25 17:34:00,56.1,20.8,30.16,North,353,8.1,8.1,25,0.00,,---,0.00,VWS V14.01,2013-03-25 22:34:00,
2013-03-25 17:39:00,56.1,20.8,30.16,NNE,13,2.7,2.7,25,0.00,,---,0.00,VWS V14.01,2013-03-25 22:39:00,
2013-03-25 17:44:00,55.6,20.3,30.16,ESE,118,2.7,5.4,25,0.00,,---,0.00,VWS V14.01,2013-03-25 22:44:00,
2013-03-25 17:49:00,55.6,20.3,30.16,NE,46,3.6,4.9,25,0.00,,---,0.00,VWS V14.01,2013-03-25 22:49:00,
2013-03-25 17:54:00,57.4,21.9,30.16,NNE,19,3.1,3.1,25,0.00,,---,0.00,VWS V14.01,2013-03-25 22:54:00,
2013-03-25 17:59:00,57.2,21.7,30.16,ENE,59,5.8,5.8,25,0.00,,---,0.00,VWS V14.01,2013-03-25 22:59:00,
2013-03-25 18:04:00,56.1,20.8,30.16,NNE,17,4.9,4.9,25,0.00,,---,0.00,VWS V14.01,2013-03-25 23:04:00,
2013-03-25 18:09:00,56.1,20.8,30.16,NNE,17,4.9,4.9,25,0.00,,---,0.00,VWS V14.01,2013-03-25 23:09:00,
2013-03-25 18:14:00,56.1,20.8,30.16,ENE,61,3.1,6.3,25,0.00,,---,0.00,VWS V14.01,2013-03-25 23:14:00,
2013-03-25 18:19:00,56.3,21.0,30.16,NNE,12,9.6,9.6,25,0.00,,---,0.00,VWS V14.01,2013-03-25 23:19:00,
2013-03-25 18:24:00,56.3,21.0,30.16,NE,39,5.4,5.4,25,0.00,,---,0.00,VWS V14.01,2013-03-25 23:24:00,
2013-03-25 18:29:00,56.1,20.8,30.16,ESE,110,0.0,3.6,25,0.00,,---,0.00,VWS V14.01,2013-03-25 23:29:00,
2013-03-25 18:34:00,56.1,20.8,30.16,ESE,114,2.2,2.2,25,0.00,,---,0.00,VWS V14.01,2013-03-25 23:34:00,
2013-03-25 18:39:00,56.3,21.0,30.16,ESE,110,5.4,5.4,25,0.00,,---,0.00,VWS V14.01,2013-03-25 23:39:00,
2013-03-25 18:44:00,56.3,21.0,30.16,NNE,22,10.1,10.1,25,0.00,,---,0.00,VWS V14.01,2013-03-25 23:44:00,
2013-03-25 18:49:00,55.6,20.3,30.19,NE,48,3.6,3.6,25,0.00,,---,0.00,VWS V14.01,2013-03-25 23:49:00,
2013-03-25 18:54:00,55.6,20.3,30.19,ESE,119,0.0,0.0,25,0.00,,---,0.00,VWS V14.01,2013-03-25 23:54:00,
2013-03-25 18:59:00,55.6,20.3,30.19,NE,43,5.4,7.6,25,0.00,,---,0.00,VWS V14.01,2013-03-25 23:59:00,
2013-03-25 19:04:00,54.9,20.6,30.19,NNE,20,5.8,5.8,26,0.00,,---,0.00,VWS V14.01,2013-03-26 00:04:00,
2013-03-25 19:09:00,54.9,20.6,30.19,NNE,28,7.2,7.2,26,0.00,,---,0.00,VWS V14.01,2013-03-26 00:09:00,
2013-03-25 19:14:00,54.7,20.5,30.19,ENE,67,0.0,0.0,26,0.00,,---,0.00,VWS V14.01,2013-03-26 00:14:00,
2013-03-25 19:19:00,54.3,20.2,30.19,ENE,64,3.6,3.6,26,0.00,,---,0.00,VWS V14.01,2013-03-26 00:19:00,
2013-03-25 19:24:00,54.0,19.9,30.19,ENE,68,3.1,5.4,26,0.00,,---,0.00,VWS V14.01,2013-03-26 00:24:00,
2013-03-25 19:29:00,54.0,19.9,30.19,ENE,77,3.1,3.1,26,0.00,,---,0.00,VWS V14.01,2013-03-26 00:29:00,
2013-03-25 19:34:00,53.1,19.1,30.19,NE,54,3.6,3.6,26,0.00,,---,0.00,VWS V14.01,2013-03-26 00:34:00,
2013-03-25 19:39:00,52.3,18.5,30.19,NE,39,4.0,4.0,26,0.00,,---,0.00,VWS V14.01,2013-03-26 00:39:00,
2013-03-25 19:44:00,51.8,18.0,30.19,East,79,4.0,4.0,26,0.00,,---,0.00,VWS V14.01,2013-03-26 00:44:00,
2013-03-25 19:49:00,51.3,18.4,30.19,ENE,66,3.1,3.1,27,0.00,,---,0.00,VWS V14.01,2013-03-26 00:49:00,
2013-03-25 19:54:00,51.3,18.4,30.19,ENE,75,2.7,5.4,27,0.00,,---,0.00,VWS V14.01,2013-03-26 00:54:00,
2013-03-25 19:59:00,50.4,17.7,30.19,ENE,71,3.6,3.6,27,0.00,,---,0.00,VWS V14.01,2013-03-26 00:59:00,
2013-03-25 20:04:00,50.4,17.7,30.19,ENE,60,3.1,3.1,27,0.00,,---,0.00,VWS V14.01,2013-03-26 01:04:00,
2013-03-25 20:09:00,49.5,16.9,30.19,ENE,60,3.1,3.1,27,0.00,,---,0.00,VWS V14.01,2013-03-26 01:09:00,
2013-03-25 20:14:00,49.5,16.9,30.19,NE,51,4.0,4.0,27,0.00,,---,0.00,VWS V14.01,2013-03-26 01:14:00,
2013-03-25 20:19:00,48.9,16.4,30.19,NE,50,5.4,5.4,27,0.00,,---,0.00,VWS V14.01,2013-03-26 01:19:00,
2013-03-25 20:24:00,48.9,16.4,30.22,NE,52,3.6,3.6,27,0.00,,---,0.00,VWS V14.01,2013-03-26 01:24:00,
2013-03-25 20:29:00,48.4,16.0,30.22,NE,41,5.8,5.8,27,0.00,,---,0.00,VWS V14.01,2013-03-26 01:29:00,
2013-03-25 20:34:00,47.7,15.3,30.22,NE,53,3.1,3.1,27,0.00,,---,0.00,VWS V14.01,2013-03-26 01:34:00,
2013-03-25 20:39:00,47.7,15.3,30.22,ENE,73,4.0,4.0,27,0.00,,---,0.00,VWS V14.01,2013-03-26 01:39:00,
2013-03-25 20:44:00,47.5,15.2,30.22,ENE,61,3.6,5.4,27,0.00,,---,0.00,VWS V14.01,2013-03-26 01:44:00,
2013-03-25 20:49:00,47.5,15.2,30.22,ENE,62,3.1,3.1,27,0.00,,---,0.00,VWS V14.01,2013-03-26 01:49:00,
2013-03-25 20:54:00,47.1,14.9,30.22,ENE,70,4.0,4.0,27,0.00,,---,0.00,VWS V14.01,2013-03-26 01:54:00,
2013-03-25 20:59:00,46.8,14.6,30.22,ENE,72,3.1,3.1,27,0.00,,---,0.00,VWS V14.01,2013-03-26 01:59:00,
2013-03-25 21:04:00,46.6,14.4,30.22,ENE,58,3.6,3.6,27,0.00,,---,0.00,VWS V14.01,2013-03-26 02:04:00,
2013-03-25 21:09:00,46.6,14.4,30.22,East,83,4.0,4.0,27,0.00,,---,0.00,VWS V14.01,2013-03-26 02:09:00,
2013-03-25 21:14:00,46.2,14.9,30.22,ENE,74,3.1,3.1,28,0.00,,---,0.00,VWS V14.01,2013-03-26 02:14:00,
2013-03-25 21:19:00,46.0,14.8,30.22,NE,56,4.0,4.0,28,0.00,,---,0.00,VWS V14.01,2013-03-26 02:19:00,
2013-03-25 21:24:00,46.0,14.8,30.22,ENE,62,4.0,4.0,28,0.00,,---,0.00,VWS V14.01,2013-03-26 02:24:00,
2013-03-25 21:29:00,45.9,14.6,30.22,East,84,3.6,3.6,28,0.00,,---,0.00,VWS V14.01,2013-03-26 02:29:00,
2013-03-25 21:34:00,45.9,14.6,30.22,ENE,66,3.6,3.6,28,0.00,,---,0.00,VWS V14.01,2013-03-26 02:34:00,
2013-03-25 21:39:00,45.9,14.6,30.22,ENE,73,4.0,4.0,28,0.00,,---,0.00,VWS V14.01,2013-03-26 02:39:00,
2013-03-25 21:44:00,45.9,14.6,30.22,ENE,74,5.8,5.8,28,0.00,,---,0.00,VWS V14.01,2013-03-26 02:44:00,
2013-03-25 21:49:00,45.3,14.1,30.25,NE,52,3.6,4.0,28,0.00,,---,0.00,VWS V14.01,2013-03-26 02:49:00,
2013-03-25 21:54:00,45.3,14.1,30.25,NE,54,5.8,5.8,28,0.00,,---,0.00,VWS V14.01,2013-03-26 02:54:00,
2013-03-25 21:59:00,45.3,14.1,30.25,ENE,61,2.7,2.7,28,0.00,,---,0.00,VWS V14.01,2013-03-26 02:59:00,
2013-03-25 22:04:00,45.3,14.1,30.25,NE,55,3.1,3.1,28,0.00,,---,0.00,VWS V14.01,2013-03-26 03:04:00,
2013-03-25 22:09:00,45.0,13.8,30.25,ENE,58,2.7,2.7,28,0.00,,---,0.00,VWS V14.01,2013-03-26 03:09:00,
2013-03-25 22:14:00,45.0,13.8,30.25,NE,56,6.3,6.3,28,0.00,,---,0.00,VWS V14.01,2013-03-26 03:14:00,
2013-03-25 22:19:00,45.0,13.8,30.25,NE,51,4.9,4.9,28,0.00,,---,0.00,VWS V14.01,2013-03-26 03:19:00,
2013-03-25 22:24:00,44.6,13.5,30.25,NE,54,3.1,3.1,28,0.00,,---,0.00,VWS V14.01,2013-03-26 03:24:00,
2013-03-25 22:29:00,44.6,13.5,30.25,NE,47,4.9,4.9,28,0.00,,---,0.00,VWS V14.01,2013-03-26 03:29:00,
2013-03-25 22:34:00,44.1,13.9,30.25,NE,47,4.9,4.9,29,0.00,,---,0.00,VWS V14.01,2013-03-26 03:34:00,
2013-03-25 22:39:00,44.1,13.9,30.25,NE,53,4.0,4.0,29,0.00,,---,0.00,VWS V14.01,2013-03-26 03:39:00,
2013-03-25 22:44:00,43.7,13.5,30.25,ENE,58,4.0,4.0,29,0.00,,---,0.00,VWS V14.01,2013-03-26 03:44:00,
2013-03-25 22:49:00,43.7,13.5,30.28,East,85,3.1,3.1,29,0.00,,---,0.00,VWS V14.01,2013-03-26 03:49:00,
2013-03-25 22:54:00,43.7,13.5,30.28,ENE,67,2.7,2.7,29,0.00,,---,0.00,VWS V14.01,2013-03-26 03:54:00,
2013-03-25 22:59:00,43.7,13.5,30.28,East,95,3.6,3.6,29,0.00,,---,0.00,VWS V14.01,2013-03-26 03:59:00,
2013-03-25 23:00:00,43.7,13.5,30.28,East,95,3.6,3.6,29,0.00,,---,0.00,VWS V14.01,2013-03-26 04:00:00,
2013-03-25 23:05:00,43.7,13.5,30.28,ENE,74,5.4,5.4,29,0.00,,---,0.00,VWS V14.01,2013-03-26 04:05:00,
2013-03-25 23:10:00,43.7,13.5,30.28,East,80,4.9,4.9,29,0.00,,---,0.00,VWS V14.01,2013-03-26 04:10:00,
2013-03-25 23:15:00,43.7,13.5,30.28,NE,54,3.6,3.6,29,0.00,,---,0.00,VWS V14.01,2013-03-26 04:15:00,
2013-03-25 23:20:00,43.5,13.4,30.28,ENE,77,3.6,3.6,29,0.00,,---,0.00,VWS V14.01,2013-03-26 04:20:00,
2013-03-25 23:25:00,43.5,13.4,30.28,NNE,31,2.7,2.7,29,0.00,,---,0.00,VWS V14.01,2013-03-26 04:25:00,
2013-03-25 23:30:00,43.5,13.4,30.28,ENE,60,5.8,5.8,29,0.00,,---,0.00,VWS V14.01,2013-03-26 04:30:00,
2013-03-25 23:35:00,43.5,13.4,30.28,ENE,66,5.4,5.4,29,0.00,,---,0.00,VWS V14.01,2013-03-26 04:35:00,
2013-03-25 23:40:00,43.2,13.1,30.28,ENE,62,2.7,2.7,29,0.00,,---,0.00,VWS V14.01,2013-03-26 04:40:00,
2013-03-25 23:45:00,42.6,13.4,30.28,ENE,59,3.6,3.6,30,0.00,,---,0.00,VWS V14.01,2013-03-26 04:45:00,
2013-03-25 23:50:00,42.4,13.2,30.31,ENE,69,3.1,4.0,30,0.00,,---,0.00,VWS V14.01,2013-03-26 04:50:00,
2013-03-25 23:55:00,42.3,13.1,30.31,ENE,60,2.2,2.2,30,0.00,,---,0.00,VWS V14.01,2013-03-26 04:55:00,